Theta_e
334 333 332 332 332 332 333 335 331 331 331 331 332 332 330 330 331 330 330 328 326 325 327 327 327 329 331 331 329 329 328 329 329 328 325 327 327 326 323 322 322 321 320
333 332 330 333 334 333 334 334 331 331 330 331 331 331 331 331 331 331 330 329 328 326 326 326 323 327 328 329 329 329 330 328 327 327 326 326 326 324 322 321 321 321 322
333 332 330 333 333 334 334 334 333 331 331 330 330 330 331 332 332 331 331 329 329 328 328 328 328 328 327 328 328 328 328 328 326 326 325 324 324 323 324 323 323 323 323
331 332 332 333 333 332 332 333 333 332 332 330 330 330 330 330 331 331 331 330 327 328 327 328 329 328 327 327 327 329 328 326 326 325 324 324 324 323 323 321 322 322 322
331 332 334 333 332 333 332 332 332 331 331 330 330 330 330 330 331 330 329 331 331 330 327 327 328 327 327 327 326 328 327 325 325 324 324 323 323 323 322 321 319 319 321
334 334 334 333 333 333 332 332 332 331 331 330 330 329 330 329 329 329 329 330 331 330 329 329 328 328 328 327 327 327 326 325 324 324 323 323 322 321 321 320 319 319 318
333 334 335 333 332 333 333 332 332 331 330 329 329 330 329 328 327 329 331 330 331 329 329 329 329 329 327 326 325 325 325 324 324 323 323 322 321 320 320 319 319 318 317
333 334 333 333 332 333 333 332 331 330 329 328 330 329 326 326 326 329 331 330 330 331 329 328 328 328 326 325 325 324 324 323 323 323 323 322 322 322 321 321 319 319 317
333 333 334 334 333 333 333 331 331 331 331 330 330 326 326 326 328 331 331 330 330 329 329 329 328 328 326 325 325 324 324 323 323 323 323 323 323 323 322 319 321 319 317
333 333 333 334 334 334 334 332 332 330 330 329 329 325 327 328 329 330 329 329 327 326 327 328 328 327 326 325 324 324 323 323 323 323 323 323 322 321 320 323 322 320 320
331 333 334 333 334 334 333 333 332 332 329 327 328 327 327 328 328 330 329 327 326 325 324 326 326 326 326 325 325 324 324 324 324 323 322 323 322 321 322 324 322 321 321
329 333 334 333 334 332 333 333 332 331 329 327 327 328 327 327 327 329 329 327 325 325 324 325 325 325 325 325 325 324 324 323 323 323 322 322 323 322 320 324 323 324 321
330 333 333 333 334 332 332 333 333 329 325 325 326 327 327 326 327 329 328 327 326 325 325 326 326 325 325 325 325 325 324 324 324 324 324 323 322 322 320 320 323 325 325
331 331 333 332 333 333 333 334 333 331 327 326 326 326 325 325 326 328 328 328 327 326 326 326 326 325 325 326 325 324 324 325 325 325 325 325 325 324 320 319 325 324 323
331 330 332 331 334 334 334 334 333 332 329 329 328 327 326 326 326 328 328 328 327 325 324 325 324 326 326 324 324 325 325 325 325 325 325 325 326 326 326 327 326 325 323
331 330 331 330 330 334 331 328 327 330 333 331 329 328 327 326 326 327 328 328 327 323 324 323 324 326 325 324 324 326 327 326 326 326 326 327 327 327 328 327 326 326 322
330 331 330 330 328 328 324 324 321 325 333 333 330 329 328 328 327 326 327 328 327 323 323 324 324 324 325 326 327 327 327 326 327 327 327 327 325 325 325 325 324 323 321
329 331 330 330 329 327 327 324 323 322 325 332 331 330 330 328 327 326 327 328 328 326 324 324 325 323 323 326 327 326 324 326 326 325 325 325 324 324 324 323 322 321 319
330 329 328 331 330 329 328 326 325 323 322 324 330 330 329 328 327 327 327 327 328 327 328 328 328 326 324 322 321 322 322 325 325 325 326 324 324 323 322 320 319 319 318
329 329 329 328 329 330 330 328 325 325 325 323 323 325 327 328 328 328 328 328 328 327 327 327 328 329 327 325 324 323 322 324 326 325 324 325 326 324 321 320 319 320 320
328 329 328 328 327 327 328 331 329 325 324 324 323 323 326 327 325 326 326 327 328 328 328 328 327 328 329 328 325 324 324 324 324 324 325 323 324 324 323 321 321 320 320
329 329 328 328 326 326 325 328 330 328 324 322 324 323 324 327 326 325 326 326 327 329 329 329 328 327 327 328 325 325 324 324 323 324 325 325 325 323 324 324 323 322 321
330 328 328 327 327 327 326 325 326 327 327 324 321 323 323 323 322 322 322 322 322 322 326 326 324 324 322 321 322 321 323 324 323 321 321 322 324 324 324 323 323 324 323
329 329 328 327 327 326 326 325 325 326 325 325 325 321 322 321 321 322 322 322 321 320 318 316 318 321 323 322 321 321 320 320 321 323 322 322 321 323 324 324 323 323 323
331 329 329 327 327 326 325 326 325 325 325 325 324 323 321 321 320 320 321 321 321 321 320 319 318 317 316 320 322 322 323 323 321 320 320 322 322 322 322 322 323 323 323
331 332 332 330 327 327 326 325 326 325 324 324 325 324 323 321 321 321 321 320 320 320 320 320 320 319 320 320 320 319 319 321 323 323 321 320 321 321 321 322 322 322 322
Wind_Speed
20 16 13 11 9 5 6 7 9 10 13 9 8 8 5 6 4 3 6 8 10 10 7 7 8 5 8 8 9 14 21 20 12 13 15 20 25 29 35 41 42 38 35
20 15 12 10 12 9 9 7 10 11 11 10 9 8 8 7 4 4 7 8 9 9 5 4 3 4 12 11 14 13 25 28 26 20 20 19 27 32 38 35 37 39 39
21 17 13 14 10 10 8 7 10 9 9 10 11 9 9 8 6 4 6 7 8 9 6 9 6 10 10 9 10 15 25 29 27 26 20 24 28 37 32 33 34 34 36
18 20 18 13 11 10 8 9 8 7 6 12 11 11 8 8 8 8 8 9 13 13 11 9 13 13 13 12 12 20 28 28 28 26 26 24 25 29 34 34 30 34 34
26 20 18 14 13 10 11 10 9 8 15 16 16 16 14 12 11 9 8 10 13 13 8 7 11 8 6 8 13 20 27 26 28 27 24 22 29 29 27 27 30 32 30
26 22 20 16 14 12 12 11 11 13 17 15 12 12 10 9 9 9 6 9 11 10 11 11 10 9 12 12 16 22 29 31 29 27 26 27 26 27 31 30 32 27 9
27 23 20 19 15 13 14 13 13 13 12 11 12 11 11 12 10 8 7 11 13 16 16 14 13 15 15 18 21 25 28 32 33 36 30 30 32 34 34 27 25 24 16
28 24 22 21 17 15 16 14 14 13 14 13 11 11 13 14 11 10 8 14 16 16 15 14 16 18 22 25 30 30 29 31 33 32 38 32 41 39 37 39 36 17 21
26 25 23 20 20 17 16 15 14 16 14 12 14 13 19 16 11 11 14 17 17 15 15 15 18 20 23 27 30 30 29 27 29 35 41 40 34 32 29 33 23 23 17
27 26 25 22 22 19 17 16 16 16 15 14 15 15 19 16 11 13 14 18 18 17 14 15 17 19 25 29 32 33 29 30 32 32 33 32 32 29 31 21 26 24 21
23 28 26 24 24 18 18 17 17 15 17 17 16 14 17 14 12 13 14 16 20 17 17 17 17 19 23 29 30 31 33 33 33 34 30 29 28 30 24 21 23 26 25
23 30 26 26 24 21 21 20 18 19 20 18 19 15 15 14 13 12 13 17 19 19 19 21 20 21 25 29 27 27 31 33 27 24 25 25 26 30 26 17 18 11 16
27 34 33 30 25 22 24 22 21 19 20 18 17 15 16 13 13 13 16 17 16 16 20 20 19 19 24 25 25 29 30 29 30 25 22 21 26 29 28 19 11 9 14
31 33 28 31 25 23 22 23 22 21 20 18 17 16 17 15 15 16 16 20 18 17 21 20 16 15 24 23 27 30 30 29 29 24 22 24 23 22 24 22 18 14 13
33 32 29 30 27 23 21 22 21 22 24 24 22 24 22 20 22 23 21 23 22 21 23 20 17 20 26 28 30 29 27 25 24 26 25 24 23 21 24 23 22 19 15
28 28 28 29 28 24 17 12 14 22 26 21 22 23 21 20 25 26 22 21 23 23 26 20 19 24 26 25 26 28 24 29 29 29 26 25 26 27 25 26 25 23 21
29 27 29 29 29 25 20 21 16 14 28 22 23 21 22 24 24 29 24 22 22 22 21 20 20 25 26 28 29 28 24 25 25 28 28 28 29 29 29 28 27 25 22
34 36 30 27 27 28 24 23 22 21 22 26 26 25 24 25 28 31 28 24 24 22 22 23 22 24 26 28 28 27 24 19 27 32 30 32 34 34 31 30 30 30 28
35 33 31 28 30 29 27 26 25 24 23 22 24 26 29 30 31 34 30 30 30 31 27 24 25 28 29 31 32 32 29 26 28 30 29 30 33 34 33 32 31 31 30
33 34 33 29 30 31 30 28 26 26 26 27 26 26 31 35 37 37 34 31 31 31 33 32 29 23 32 35 35 34 34 34 34 34 36 34 32 36 36 36 35 34 35
30 34 35 31 26 30 28 28 27 28 25 27 31 33 36 41 35 37 38 34 32 33 35 34 34 31 28 23 39 39 38 37 39 38 38 39 36 34 39 37 33 34 35
33 32 36 27 26 28 29 31 34 28 29 27 28 35 40 41 37 37 38 39 40 38 35 34 35 36 35 30 25 38 36 35 34 35 37 39 41 42 38 36 36 36 34
33 32 32 30 30 27 29 33 32 35 30 31 30 32 42 39 34 35 38 42 43 42 43 38 34 35 34 31 33 31 32 39 37 36 36 35 37 39 40 39 36 34 35
28 33 33 31 29 30 26 31 34 33 36 32 34 34 43 44 39 38 41 41 42 44 45 46 46 43 37 33 35 38 38 38 37 36 36 37 39 39 38 40 40 38 36
7 21 25 28 29 31 29 26 33 34 34 36 33 34 40 43 41 41 41 41 42 42 43 43 44 46 50 48 44 41 33 31 41 43 42 39 39 38 39 41 39 37 36
13 16 4 24 29 30 30 31 31 35 35 34 37 35 36 39 43 43 43 44 43 43 43 43 44 43 41 41 41 43 48 44 34 31 36 42 41 39 38 39 39 40 37
Wind_Direction
158 176 180 182 153 146 147 146 162 153 160 162 154 153 144 149 158 163 150 157 141 134 125 108 98 88 124 185 173 164 157 145 125 117 122 145 135 142 142 139 141 146 151
167 177 171 158 142 140 150 160 170 152 169 145 150 148 144 154 158 137 147 167 165 165 156 161 119 114 105 138 154 153 156 145 137 128 128 131 147 146 147 140 141 141 141
175 176 163 147 144 147 144 153 159 174 166 162 161 149 150 134 133 131 127 136 117 104 122 144 137 137 126 132 133 158 151 141 139 134 128 128 129 135 131 131 131 143 143
173 160 148 145 153 153 148 157 161 169 185 157 162 143 142 130 125 124 108 106 115 111 106 147 150 148 131 114 123 147 142 134 135 133 133 136 135 135 127 125 117 128 133
162 160 148 154 154 152 149 151 150 131 150 148 137 127 117 117 112 103 105 114 133 124 134 126 139 147 156 150 147 147 141 139 139 137 136 133 128 126 124 122 120 130 135
160 153 151 156 153 154 156 145 133 124 137 137 132 121 120 117 122 116 117 116 130 131 148 146 134 143 145 145 153 162 151 144 141 141 139 136 129 130 134 132 130 129 122
153 150 154 157 156 158 156 151 146 144 141 133 126 121 123 122 127 119 106 120 128 124 126 130 125 140 143 136 127 132 140 146 146 143 135 137 135 142 141 140 143 146 150
155 155 158 165 158 158 151 148 149 148 142 138 132 134 130 120 127 127 112 125 124 132 132 133 129 140 141 135 125 118 117 126 137 141 145 146 152 161 162 162 161 150 154
161 162 167 166 158 159 159 157 155 152 146 146 146 140 133 128 121 122 124 121 121 120 128 134 133 138 144 146 128 121 122 128 143 151 157 158 159 162 167 157 156 143 146
162 168 170 169 164 166 166 160 159 160 155 147 140 143 140 130 108 122 136 134 125 126 129 137 143 144 151 153 140 135 127 136 145 150 154 162 165 162 157 161 157 149 155
174 169 169 168 159 160 162 161 155 163 159 148 136 137 148 137 123 117 147 143 137 128 136 140 143 150 155 158 156 147 148 152 152 154 160 163 164 164 159 164 173 169 166
170 158 161 160 153 156 154 153 153 155 153 157 155 137 151 146 134 131 146 146 136 129 140 144 140 151 159 155 159 156 153 154 145 144 152 162 173 181 181 168 172 185 219
162 145 151 150 152 154 153 157 158 156 149 152 156 150 155 153 145 136 146 144 137 132 142 140 138 147 156 157 162 159 158 152 154 160 167 175 181 183 190 196 208 215 206
153 153 153 151 154 160 167 170 167 162 159 160 159 160 170 167 160 152 149 154 148 138 136 137 139 149 159 156 159 161 169 166 167 169 177 182 184 191 197 205 208 199 200
152 156 152 155 161 169 180 181 186 189 174 173 173 173 170 174 178 166 154 158 157 148 148 148 142 141 151 156 163 168 174 174 183 189 190 193 196 196 204 210 218 206 209
153 159 156 161 170 173 173 161 183 207 193 179 177 173 178 173 169 169 161 159 161 156 155 152 150 158 155 162 171 176 179 190 197 197 200 200 204 206 208 208 215 219 220
161 165 162 166 175 175 165 150 134 143 177 176 177 172 164 164 166 170 167 165 168 165 164 167 166 175 177 180 185 190 195 194 212 203 204 208 210 209 210 214 219 226 227
167 171 172 171 177 187 185 172 158 144 143 163 175 179 177 168 170 173 174 174 177 185 186 186 186 185 188 195 200 203 209 215 206 211 211 211 212 211 211 219 224 225 224
172 175 180 179 185 190 195 187 180 169 162 165 179 183 183 179 174 178 183 190 191 197 201 203 206 203 202 202 204 211 215 216 214 211 211 214 216 217 218 223 225 226 228
179 181 185 187 190 195 193 190 184 183 176 177 179 184 184 181 184 189 193 198 199 203 211 218 221 217 210 213 213 210 214 220 222 220 218 221 227 225 223 224 225 224 224
182 186 188 196 194 198 200 193 191 186 184 186 190 191 188 188 192 198 201 204 205 210 216 222 228 231 232 234 218 218 217 220 224 225 226 225 226 221 223 225 226 227 229
179 187 192 196 200 198 202 202 204 193 190 189 193 199 197 196 200 205 209 212 215 216 222 227 232 235 239 238 233 223 223 224 225 227 228 231 229 229 228 228 229 232 235
176 184 190 195 205 211 206 207 206 208 196 195 193 193 202 201 206 209 214 218 222 225 224 223 230 236 238 241 242 240 235 230 232 235 236 235 232 231 231 232 232 233 232
186 185 189 195 198 210 217 205 210 214 213 208 198 196 202 206 209 214 219 223 225 229 231 230 229 231 231 232 237 239 238 241 241 239 238 239 238 235 233 232 233 234 236
27 207 195 196 202 207 214 219 208 212 214 215 218 210 204 208 212 216 219 221 224 226 232 234 236 237 237 236 237 238 239 245 244 242 239 240 240 240 237 234 231 231 233
3 12 318 205 202 208 211 216 213 209 213 216 218 222 220 213 215 218 220 223 224 227 229 233 237 238 239 240 241 242 242 243 244 242 241 237 237 238 238 236 235 232 227